Regional Weather Roundup
Issued by NWS

Home | Current Version | Previous Version | Graphics & Text | Print | Product List | Glossary On
Versions: 1 2 3 4 5 6 7 8 9 10 11 12 13 14 15 16 17 18 19 20 21 22 23 24 25 26 27 28
000
ASUS45 KBOU 300707
RWRCO

WEATHER ROUNDUP FOR COLORADO
NATIONAL WEATHER SERVICE DENVER/BOULDER CO
100 AM MDT MON MAY 30 2016

NOTE: "FAIR" INDICATES FEW OR NO CLOUDS BELOW 12000 FEET WITH NO
SIGNIFICANT WEATHER AND/OR OBSTRUCTIONS TO VISIBILITY.

COZ001>005-013-030-031-300800-
...NORTHWEST COLORADO...

CITY           SKY/WX    TMP DP  RH WIND       PRES   REMARKS
CRAIG          FAIR      44  38  79 E5        30.15F
HAYDEN         FAIR      46  36  66 E9        30.17S
MEEKER         FAIR      44  38  79 E7        30.16F
MOUNT WERNER   NOT AVBL
STEAMBOAT SPGS FAIR      42  35  77 CALM      30.19F
WALDEN         NOT AVBL
$$

COZ006>008-011-300800-
...WEST CENTRAL VALLEYS...

CITY           SKY/WX    TMP DP  RH WIND       PRES   REMARKS
GRAND JUNCTION FAIR      55  37  50 E5        30.04F
MONTROSE       FAIR      51  34  52 SE6       30.13S
EAGLE          FAIR      46  36  66 E3        30.21F
RIFLE          FAIR      52  36  54 SE7       30.12F
DELTA          FAIR      56  34  43 N6        30.09F
NUCLA          FAIR      54  32  43 SE5       30.14S
$$

COZ017>023-064>068-300800-
...SOUTHWEST COLORADO...

CITY           SKY/WX    TMP DP  RH WIND       PRES   REMARKS
DURANGO        FAIR      48  28  46 N5        30.13S
CORTEZ         FAIR      44  29  55 NE5       30.09S
PAGOSA SPRINGS FAIR      45  29  53 CALM      30.21S
TELLURIDE      FAIR      44  26  49 SE8       30.32S
WOLF CREEK PAS FAIR      36  27  69 NE9       30.48F
$$

COZ009-010-012-014-032>034-037-058>063-300800-
...CENTRAL COLORADO...

CITY           SKY/WX    TMP DP  RH WIND       PRES   REMARKS
ASPEN          FAIR      42  30  62 S7        30.24F
BUENA VISTA    FAIR      44  28  53 N5        30.27F
COPPER MTN     NOT AVBL
BERTHOUD PASS  FAIR      32  23  69 SW5       30.47F WCI  27
COTTONWOOD PAS FAIR      50  23  34 W6        30.35F
GUNNISON       FAIR      43  28  56 N8        30.28S
KREMMLING      FAIR      41  34  75 CALM      30.26S
LEADVILLE      FAIR      29  24  82 CALM      30.34F
MONARCH PASS   FAIR      37  23  56 E8        30.56F
SALIDA         FAIR      47  31  53 W6        30.32F
SUNLIGHT       FAIR      41  32  70 CALM      30.41F
WILKERSON PASS FAIR      39  27  60 SW9       30.45F
$$

COZ069>075-300800-
...SAN LUIS VALLEY/SANGRE DE CRISTO MOUNTAINS...

CITY           SKY/WX    TMP DP  RH WIND       PRES   REMARKS
ALAMOSA        FAIR      45  39  79 SE5       30.21F
LA VETA PASS   FAIR      45  30  57 NE7       30.37S
SAGUACHE       FAIR      46  32  57 NW18      30.24F
$$

COZ035-036-038>040-300800-
...NORTHERN COLORADO FRONT RANGE...

CITY           SKY/WX    TMP DP  RH WIND       PRES   REMARKS
DENVER INTL AP FAIR      48  42  80 SE9       30.13R
DMNS CITY PARK   N/A     54  43  66 SE12      30.12S
AURORA         PTCLDY    51  42  71 S9        30.15R
FRONT RANGE AP NOT AVBL
ERIE MUNI ARPT FAIR      49  44  83 CALM      30.10F
BOULDER MUN AP FAIR      54  37  54 SW7       30.10F
CENTENNIAL     FAIR      50  42  74 S12       30.14S
BROOMFIELD     FAIR      52  41  66 W5        30.13S
FORT COLLINS   FAIR      54  45  71 SW5       30.10S
LONGMONT       FAIR      52  44  74 W5        30.11F
$$

COZ041-046-047-076>085-087-088-300800-
...PIKES PEAK/PALMER DIVIDE AND SOUTHERN FOOTHILLS...

CITY           SKY/WX    TMP DP  RH WIND       PRES   REMARKS
COLO. SPRINGS  FAIR      52  40  63 NW3       30.19S
A. F. ACADEMY  FAIR      45  39  81 N7        30.20F
SCHRIEVER AFB  NOT AVBL
ELLICOTT       FAIR     N/A N/A N/A SE8       30.17S
FALCON         FAIR      48  38  67 CALM      30.22F
FORT CARSON    FAIR      50  41  71 N7        30.15F
LIMON          FAIR      47  45  93 SE3       30.15F
MONUMENT HILL  FAIR      41  37  87 S8        30.22F
TRINIDAD       FAIR      56  43  61 W21G30    30.14F
$$

COZ042>045-048>051-090-091-300800-
...NORTHEAST COLORADO...

CITY           SKY/WX    TMP DP  RH WIND       PRES   REMARKS
GREELEY ARPT   FAIR      52  45  76 SE8       30.10R
AKRON          FAIR      55  48  77 S10       30.09F
BURLINGTON     FAIR      54  50  86 SE9       30.13R
WRAY           FAIR      59  48  67 SE10      30.09F
STERLING       FAIR      59  52  77 S16G22    30.06R
HOLYOKE        FAIR      61  52  72 SE15      30.10S
FORT MORGAN    FAIR      56  48  76 S6        30.09S
$$

COZ086-089-092>099-300800-
...SOUTHEAST COLORADO...

CITY           SKY/WX    TMP DP  RH WIND       PRES   REMARKS
PUEBLO         FAIR      55  48  77 N10       30.08F
LA JUNTA       FAIR      57  47  69 E5        30.09F
LAMAR          FAIR      53  47  79 VRB3      30.08F
SPRINGFIELD      N/A     52  49  89 SW10      30.09F
$$




USA.gov is the U.S. government's official web portal to all federal, state and local government web resources and services.